Location: Malvern Link
(52.1333°N, 2.3000°W)
Time: 16:00:18
(UTC+00:00)

ARIANE 5 R/B - Pass Details

Date: 18 September 2020
Orbit: 620 x 657 km, 98.2° (Epoch: 09 October)

Event Time Altitude Azimuth Distance (km) Brightness Sun altitude
Exits shadow 19:37:43 17° 85° (E) 1,575 4.1 -13.1°
Maximum altitude 19:39:09 20° 59° (ENE) 1,444 4.1 -13.3°
Drops below altitude 10° 19:42:20 10° 12° (NNE) 2,004 5.3 -13.7°
Sets 19:44:58 0° 356° (N) 2,913 6.4 -14.1°
